Vorticity
3 1 6 8 7 4 5 17 1 -0 16 7 5 10 9 12 8 7 10 11 12 9 13 14 16 16 19 23 -1 -10 -3 11 13 11 10 9 9 11 13 13 15 17 14
5 4 5 7 5 -2 12 8 13 28 15 15 10 9 12 7 6 9 11 12 9 10 12 13 14 12 18 14 13 19 19 12 11 10 8 10 14 15 14 17 15 13 12
14 10 10 11 7 7 -5 30 -16 35 9 10 8 11 -2 9 5 15 10 10 10 10 11 11 10 10 11 12 14 12 11 10 8 8 12 15 13 16 17 14 11 12 11
8 12 19 18 3 12 19 -10 20 -3 9 7 16 -5 25 4 12 14 13 11 9 11 12 11 8 10 11 10 11 12 9 8 13 14 14 14 14 16 13 11 11 11 15
2 10 3 -3 -2 17 -1 31 31 11 2 16 -0 26 10 8 11 13 12 11 9 11 11 9 9 11 9 11 11 8 8 13 12 12 11 11 16 13 11 11 10 19 24
14 9 1 -7 10 15 14 25 -4 4 2 -10 15 8 4 8 11 13 12 9 10 11 11 9 12 10 11 11 8 7 13 11 10 11 11 13 15 10 10 10 19 16 14
5 16 5 14 3 -11 32 34 10 8 0 13 11 4 8 10 11 14 11 9 10 11 10 10 11 12 12 10 7 12 10 11 10 11 11 13 13 11 8 19 15 10 14
13 8 0 8 16 -2 46 13 4 -0 29 1 8 7 10 12 11 12 10 9 9 11 10 10 11 10 13 7 10 10 11 12 12 11 11 12 13 11 16 14 13 12 18
2 4 4 12 -2 32 26 -15 11 19 10 7 7 11 11 12 12 11 10 11 11 10 12 10 11 13 11 7 12 10 12 12 13 12 11 15 14 10 19 11 13 11 19
13 8 5 25 31 19 -4 -2 27 12 4 8 9 13 13 13 10 10 10 12 12 11 11 10 13 12 8 8 10 10 11 12 13 13 10 14 15 16 19 11 10 13 8
1 7 19 28 14 22 34 7 11 4 4 7 11 12 13 15 12 11 11 14 13 12 11 12 13 12 8 9 8 9 9 11 12 13 13 13 17 14 20 11 8 7 12
15 39 9 26 31 14 19 2 3 3 10 14 12 11 12 12 11 11 12 13 13 10 10 12 14 11 8 9 8 8 8 9 11 13 15 11 14 12 23 16 9 8 11
23 31 18 8 14 4 4 3 1 11 9 9 7 10 11 11 10 11 12 14 12 10 10 11 14 11 8 8 8 7 8 8 8 11 13 16 11 14 10 26 14 9 10
12 11 15 6 4 4 3 6 7 9 6 8 13 11 11 14 13 11 10 11 10 8 9 13 15 13 9 8 9 7 6 7 6 7 10 13 16 10 15 12 27 18 9
17 5 6 5 3 3 6 5 7 9 11 12 12 13 11 12 14 11 10 10 12 10 8 14 19 15 12 7 8 8 7 5 5 6 7 9 15 17 11 15 12 25 22
6 5 5 6 7 7 8 7 5 10 9 11 12 12 14 11 13 12 12 10 12 9 9 13 15 14 14 9 8 8 8 7 6 5 5 8 10 17 16 11 15 13 23
7 7 7 7 7 7 7 6 8 7 6 11 14 17 15 13 12 14 14 11 7 9 10 13 14 14 14 11 8 8 7 7 7 8 5 5 9 10 19 13 12 16 15
7 7 7 8 7 6 9 17 10 7 6 10 13 16 17 13 12 14 20 9 11 11 9 12 13 12 14 13 10 8 8 7 7 7 8 6 7 10 12 16 12 14 15
6 6 5 5 7 16 13 0 4 5 6 14 19 11 12 13 11 14 23 9 10 12 9 10 11 12 12 13 12 10 10 8 6 7 7 9 7 8 9 13 13 12 16
5 6 6 8 12 7 8 14 12 9 11 12 14 16 22 14 19 19 19 11 5 14 10 8 8 10 11 11 12 12 10 10 8 7 6 7 9 6 9 10 14 12 12
8 10 12 12 12 14 18 16 11 14 10 9 9 3 27 13 15 18 17 14 3 17 19 10 9 8 7 9 14 13 9 9 9 9 7 6 7 8 7 9 10 14 11
9 12 18 20 22 23 20 19 3 6 4 23 10 13 17 19 9 19 17 16 7 11 16 11 11 10 10 10 6 1 13 21 9 8 8 7 6 8 8 8 10 11 14
18 18 17 16 16 18 19 26 23 26 21 21 -1 8 16 18 11 11 17 26 5 8 20 10 10 7 7 9 6 5 7 3 14 15 10 7 7 5 9 8 8 11 11
16 15 15 17 18 15 12 23 31 12 14 7 9 17 12 14 7 6 6 15 7 2 -4 1 3 11 13 13 13 13 10 7 9 4 13 13 7 6 6 9 8 9 11
16 16 16 16 18 17 16 22 27 15 7 -7 12 16 8 1 8 17 16 16 11 13 12 5 15 11 14 13 12 12 16 12 6 11 10 8 14 7 5 7 9 9 10
15 16 18 21 24 25 16 13 28 30 23 2 8 4 11 13 7 15 19 19 19 16 16 25 9 12 13 13 10 11 15 15 15 5 12 11 10 11 6 5 9 9 10
Height
3116 3116 3115 3113 3110 3107 3103 3100 3095 3092 3085 3083 3078 3074 3070 3064 3058 3055 3050 3046 3040 3035 3031 3026 3020 3016 3013 3010 3008 3006 3002 2997 2992 2988 2986 2981 2975 2971 2967 2963 2957 2954 2951
3107 3107 3106 3104 3102 3098 3094 3091 3086 3082 3076 3071 3068 3065 3060 3054 3049 3047 3041 3037 3031 3026 3021 3018 3015 3010 3007 3006 3004 2999 2994 2989 2984 2977 2975 2971 2965 2960 2955 2951 2947 2944 2940
3100 3099 3097 3097 3092 3089 3086 3080 3077 3071 3066 3064 3060 3055 3051 3047 3043 3039 3032 3027 3023 3018 3013 3010 3007 3004 3001 2996 2992 2989 2986 2981 2975 2968 2963 2960 2954 2949 2945 2941 2937 2935 2931
3093 3091 3092 3090 3085 3081 3076 3071 3066 3063 3059 3057 3053 3049 3044 3040 3036 3032 3026 3020 3015 3011 3007 3003 2999 2996 2993 2989 2986 2981 2976 2972 2967 2961 2956 2951 2946 2941 2936 2931 2928 2926 2922
3086 3085 3084 3080 3076 3071 3066 3061 3058 3055 3054 3050 3045 3041 3038 3033 3028 3024 3019 3013 3009 3004 3000 2997 2993 2989 2986 2982 2978 2975 2969 2963 2958 2953 2948 2942 2938 2933 2929 2924 2919 2915 2915
3080 3078 3074 3070 3068 3061 3057 3054 3050 3047 3043 3041 3038 3031 3026 3022 3020 3016 3012 3006 3001 2997 2993 2989 2986 2982 2980 2976 2972 2966 2961 2954 2950 2944 2940 2934 2931 2926 2922 2917 2912 2908 2906
3073 3070 3065 3061 3058 3053 3048 3043 3041 3037 3035 3032 3029 3025 3021 3017 3011 3008 3004 2999 2995 2991 2986 2982 2978 2975 2973 2971 2966 2960 2955 2950 2943 2938 2933 2928 2923 2920 2915 2910 2907 2902 2900
3065 3060 3057 3053 3048 3042 3036 3034 3031 3030 3026 3022 3020 3017 3013 3008 3004 3001 2996 2992 2987 2983 2979 2975 2971 2968 2967 2964 2960 2955 2950 2944 2938 2933 2927 2922 2917 2913 2909 2905 2902 2899 2897
3056 3052 3046 3042 3035 3029 3025 3027 3027 3023 3020 3017 3014 3009 3005 3001 2996 2992 2989 2985 2981 2976 2972 2968 2965 2963 2961 2958 2954 2949 2945 2939 2934 2928 2923 2918 2913 2908 2904 2901 2898 2895 2892
3047 3043 3037 3030 3024 3023 3026 3025 3020 3015 3012 3011 3006 3001 2996 2992 2987 2983 2980 2977 2972 2969 2965 2962 2959 2957 2954 2951 2948 2944 2939 2934 2929 2925 2920 2914 2909 2905 2900 2897 2895 2892 2889
3035 3032 3029 3025 3026 3024 3021 3017 3013 3010 3007 3003 2998 2994 2990 2986 2981 2976 2973 2970 2965 2962 2959 2956 2953 2951 2949 2946 2942 2938 2934 2930 2925 2920 2915 2911 2906 2901 2897 2894 2892 2889 2886
3033 3028 3026 3023 3020 3017 3013 3009 3007 3003 2999 2996 2991 2987 2982 2977 2973 2969 2965 2962 2959 2956 2953 2950 2947 2945 2943 2940 2937 2934 2930 2926 2921 2917 2912 2907 2902 2898 2894 2891 2888 2886 2884
3025 3021 3019 3016 3012 3008 3005 3002 2999 2995 2990 2987 2983 2978 2974 2969 2965 2961 2958 2955 2952 2949 2946 2943 2941 2939 2937 2935 2933 2930 2927 2923 2918 2914 2908 2904 2899 2894 2890 2887 2885 2883 2882
3017 3014 3011 3008 3005 3002 2999 2995 2991 2988 2983 2978 2974 2970 2965 2961 2957 2953 2950 2946 2943 2941 2940 2937 2935 2933 2931 2930 2928 2925 2923 2919 2915 2911 2906 2900 2895 2891 2888 2884 2881 2879 2878
3010 3007 3004 3001 2998 2995 2991 2988 2984 2979 2974 2969 2965 2960 2956 2952 2948 2944 2941 2938 2936 2934 2932 2931 2929 2927 2926 2924 2922 2920 2918 2915 2912 2908 2904 2898 2893 2889 2885 2881 2877 2874 2872
3004 3000 2998 2994 2990 2987 2983 2980 2976 2971 2965 2961 2956 2951 2948 2943 2940 2936 2933 2931 2928 2926 2924 2923 2921 2920 2919 2918 2916 2915 2913 2911 2908 2905 2901 2896 2892 2887 2883 2879 2874 2871 2868
2996 2993 2990 2986 2982 2977 2974 2970 2965 2962 2957 2952 2946 2942 2937 2934 2930 2927 2925 2923 2920 2919 2918 2916 2914 2913 2912 2911 2910 2909 2908 2906 2904 2901 2898 2894 2890 2885 2881 2877 2873 2869 2866
2990 2986 2982 2978 2973 2968 2963 2959 2954 2949 2945 2942 2938 2932 2928 2924 2921 2919 2916 2915 2913 2912 2911 2910 2908 2906 2905 2904 2904 2903 2903 2901 2899 2897 2894 2891 2888 2883 2879 2875 2871 2868 2865
2978 2974 2969 2965 2960 2955 2950 2947 2943 2938 2934 2929 2926 2923 2919 2915 2912 2910 2908 2906 2906 2905 2904 2903 2902 2901 2899 2898 2898 2897 2897 2896 2894 2893 2891 2888 2885 2881 2877 2874 2870 2867 2864
2970 2965 2960 2954 2948 2944 2940 2936 2931 2927 2922 2919 2915 2912 2908 2904 2902 2900 2899 2898 2897 2897 2896 2896 2895 2894 2893 2892 2891 2891 2891 2890 2889 2888 2887 2885 2882 2878 2876 2872 2869 2866 2863
2958 2952 2945 2940 2934 2930 2925 2921 2918 2915 2911 2908 2905 2902 2899 2895 2892 2891 2890 2889 2890 2889 2887 2887 2887 2887 2886 2885 2884 2884 2884 2884 2883 2883 2882 2880 2878 2876 2873 2870 2868 2865 2862
2943 2937 2930 2924 2919 2914 2910 2907 2905 2902 2899 2896 2895 2892 2889 2886 2885 2883 2881 2880 2881 2881 2880 2879 2879 2879 2879 2878 2878 2877 2877 2877 2877 2877 2876 2875 2874 2872 2870 2868 2866 2863 2861
2929 2923 2917 2911 2905 2900 2896 2892 2890 2888 2885 2884 2884 2883 2880 2879 2877 2875 2874 2873 2872 2872 2872 2871 2870 2870 2870 2871 2871 2870 2870 2870 2870 2870 2870 2870 2869 2868 2867 2865 2863 2861 2859
2916 2909 2903 2897 2892 2886 2883 2879 2879 2879 2876 2875 2874 2873 2871 2870 2869 2867 2866 2865 2865 2864 2863 2863 2862 2862 2862 2862 2862 2862 2862 2863 2863 2863 2863 2863 2863 2863 2863 2861 2860 2859 2857
2904 2897 2891 2885 2879 2874 2871 2869 2868 2868 2867 2866 2864 2863 2862 2861 2860 2858 2856 2855 2855 2854 2854 2853 2853 2853 2853 2853 2853 2853 2854 2854 2855 2855 2856 2856 2856 2857 2857 2857 2856 2855 2854
2893 2886 2879 2873 2868 2863 2861 2860 2858 2856 2854 2854 2854 2854 2853 2852 2850 2848 2846 2844 2843 2843 2842 2842 2843 2844 2844 2844 2845 2845 2845 2845 2846 2847 2848 2848 2849 2850 2851 2852 2852 2851 2851